N5SNT-2 Weather Reports


time (UTC)temp
C
wind
direction
speed
KPH
gust
KPH
rain 1hr
cm
rain 24hr
cm
rain mn
cm
humidity
%
barometer
mb
20260505162223 23 238 11.3 20.9 0.00 0.00 0.00 88 1011.0
20260505161724 23 208 4.8 11.3 0.00 0.00 0.00 89 1011.0
20260505161223 23 194 11.3 16.1 0.00 0.00 0.00 90 1011.0
20260505160725 23 164 8.0 14.5 0.00 0.00 0.00 90 1011.0
20260505160225 23 236 16.1 16.1 0.00 0.00 0.00 90 1011.0
20260505153223 22 219 9.7 14.5 0.00 0.00 0.00 92 1011.0
20260505152726 22 221 4.8 9.7 0.00 0.00 0.00 92 1011.0
20260505152225 22 219 11.3 11.3 0.00 0.00 0.00 92 1011.0
20260505151723 22 176 8.0 12.9 0.00 0.00 0.00 92 1011.0
20260505151225 22 174 6.4 11.3 0.00 0.00 0.00 93 1011.0
20260505150723 22 242 6.4 8.0 0.00 0.00 0.00 93 1011.0
20260505150224 22 243 9.7 14.5 0.00 0.00 0.00 93 1011.0
20260505140225 21 193 4.8 14.5 0.00 0.00 0.00 97 1010.0
20260505130223 21 178 3.2 19.3 0.00 0.00 0.00 96 1010.0
20260505124724 21 214 8.0 16.1 0.00 0.00 0.00 95 1010.0
20260505124223 21 178 8.0 12.9 0.00 0.00 0.00 95 1010.0
20260505123723 21 149 6.4 14.5 0.00 0.00 0.00 95 1010.0
20260505123223 21 214 11.3 16.1 0.00 0.00 0.00 95 1010.0
20260505122732 21 231 8.0 12.9 0.00 0.00 0.00 95 1010.0
20260505122223 21 221 6.4 11.3 0.00 0.00 0.00 95 1009.0
20260505121723 21 171 9.7 19.3 0.00 0.00 0.00 95 1010.0
20260505121223 21 167 4.8 12.9 0.00 0.00 0.00 95 1010.0
20260505120724 21 183 3.2 14.5 0.00 0.00 0.00 95 1010.0
20260505120223 21 192 4.8 11.3 0.00 0.00 0.00 95 1009.0
20260505115723 21 167 3.2 9.7 0.00 0.00 0.00 95 1009.0
20260505115226 21 178 8.0 16.1 0.00 0.00 0.00 95 1009.0
20260505114726 21 158 9.7 14.5 0.00 0.00 0.00 95 1009.0
20260505114224 21 168 8.0 11.3 0.00 0.00 0.00 95 1009.0
20260505113723 21 147 11.3 11.3 0.00 0.00 0.00 95 1009.0
20260505113223 21 184 4.8 14.5 0.00 0.00 0.00 95 1009.0
20260505112723 21 213 4.8 11.3 0.00 0.00 0.00 95 1009.0
20260505112224 21 173 8.0 11.3 0.00 0.00 0.00 95 1009.0
20260505111723 21 173 4.8 11.3 0.00 0.00 0.00 95 1009.0
20260505111223 21 170 6.4 14.5 0.00 0.00 0.00 95 1009.0
20260505110723 21 158 9.7 14.5 0.00 0.00 0.00 95 1009.0
20260505110223 21 193 4.8 12.9 0.00 0.00 0.00 95 1009.0
20260505101725 21 179 4.8 17.7 0.00 0.00 0.00 95 1009.0
20260505101223 21 201 4.8 12.9 0.00 0.00 0.00 95 1009.0
20260505100724 21 174 8.0 19.3 0.00 0.00 0.00 95 1009.0
20260505100223 21 211 8.0 11.3 0.00 0.00 0.00 95 1009.0
20260505095723 21 188 4.8 14.5 0.00 0.00 0.00 95 1009.0
20260505095225 20 174 4.8 11.3 0.00 0.00 0.00 95 1009.0
20260505094725 20 183 8.0 9.7 0.00 0.00 0.00 95 1009.0
20260505094223 20 227 9.7 14.5 0.00 0.00 0.00 96 1009.0
20260505093724 20 182 3.2 8.0 0.00 0.00 0.00 96 1009.0
20260505093223 20 193 9.7 11.3 0.00 0.00 0.00 96 1009.0
20260505092725 20 144 9.7 9.7 0.00 0.00 0.00 96 1009.0
20260505092224 20 180 4.8 8.0 0.00 0.00 0.00 96 1009.0
20260505091724 20 162 8.0 8.0 0.00 0.00 0.00 96 1010.0
20260505091223 20 161 4.8 11.3 0.00 0.00 0.00 96 1010.0
20260505090723 20 175 6.4 8.0 0.00 0.00 0.00 96 1009.0
20260505090223 20 183 4.8 9.7 0.00 0.00 0.00 96 1009.0
20260505085723 20 193 6.4 9.7 0.00 0.00 0.00 96 1009.0
20260505085223 20 150 11.3 14.5 0.00 0.00 0.00 97 1009.0
20260505084723 20 174 3.2 8.0 0.00 0.00 0.00 97 1009.0
20260505083753 20 178 3.2 6.4 0.00 0.00 0.00 97 1009.0
20260505083223 20 185 3.2 6.4 0.00 0.00 0.00 97 1010.0
20260505082723 20 181 4.8 8.0 0.00 0.00 0.00 97 1010.0
20260505082224 20 145 6.4 8.0 0.00 0.00 0.00 96 1010.0
20260505081723 20 187 3.2 6.4 0.00 0.00 0.00 96 1010.0
20260505081224 20 173 3.2 9.7 0.00 0.00 0.00 96 1010.0
20260505080725 20 193 4.8 8.0 0.00 0.00 0.00 96 1010.0
20260505080225 20 167 4.8 8.0 0.00 0.00 0.00 96 1010.0
20260505075723 20 147 8.0 8.0 0.00 0.00 0.00 96 1010.0
20260505075225 20 144 6.4 9.7 0.00 0.00 0.00 96 1010.0
20260505074724 20 182 4.8 4.8 0.00 0.00 0.00 96 1010.0
20260505074228 20 140 3.2 8.0 0.00 0.00 0.00 96 1010.0
20260505073723 20 188 3.2 9.7 0.00 0.00 0.00 96 1010.0
20260505073223 20 165 4.8 8.0 0.00 0.00 0.00 96 1010.0
20260505072723 20 188 1.6 6.4 0.00 0.00 0.00 95 1010.0
20260505072223 20 179 4.8 8.0 0.00 0.00 0.00 95 1011.0
20260505071723 20 125 4.8 8.0 0.00 0.00 0.00 95 1011.0
20260505071224 20 128 4.8 11.3 0.00 0.00 0.00 95 1011.0
20260505070723 20 186 1.6 8.0 0.00 0.00 0.00 95 1011.0
20260505070224 20 152 3.2 6.4 0.00 0.00 0.00 95 1011.0
20260505065724 20 130 4.8 6.4 0.00 0.00 0.00 95 1011.0
20260505065223 20 156 4.8 6.4 0.00 0.00 0.00 95 1011.0
20260505064724 20 165 4.8 4.8 0.00 0.00 0.00 95 1011.0
20260505064225 20 189 6.4 8.0 0.00 0.00 0.00 95 1011.0
20260505063723 20 120 3.2 8.0 0.00 0.00 0.00 95 1011.0
20260505063223 20 169 6.4 8.0 0.00 0.00 0.00 94 1011.0
20260505062723 20 177 4.8 11.3 0.00 0.00 0.00 94 1011.0
20260505061737 20 207 3.2 9.7 0.00 0.00 0.00 94 1011.0
20260505061223 20 146 6.4 9.7 0.00 0.00 0.00 93 1011.0
20260505060724 20 194 6.4 9.7 0.00 0.00 0.00 93 1011.0
20260505060223 20 151 4.8 12.9 0.00 0.00 0.00 93 1011.0
20260505055724 20 157 9.7 9.7 0.00 0.00 0.00 93 1011.0
20260505055223 20 143 9.7 12.9 0.00 0.00 0.00 92 1011.0
20260505054724 20 161 4.8 12.9 0.00 0.00 0.00 92 1011.0
20260505054223 20 196 6.4 11.3 0.00 0.00 0.00 92 1011.0
20260505053724 20 138 6.4 8.0 0.00 0.00 0.00 92 1011.0
20260505053223 20 174 6.4 12.9 0.00 0.00 0.00 91 1011.0
20260505052723 21 161 9.7 11.3 0.00 0.00 0.00 91 1011.0
20260505052223 21 164 4.8 11.3 0.00 0.00 0.00 91 1011.0
20260505051724 21 126 8.0 12.9 0.00 0.00 0.00 91 1011.0
20260505051223 21 164 9.7 20.9 0.00 0.00 0.00 91 1010.0
20260505050723 21 135 11.3 22.5 0.00 0.00 0.00 91 1010.0
20260505050223 21 117 8.0 12.9 0.00 0.00 0.00 90 1011.0
20260505041723 21 177 8.0 16.1 0.00 0.00 0.00 89 1011.0
20260505041224 21 182 8.0 9.7 0.00 0.00 0.00 89 1011.0
20260505040723 21 161 8.0 11.3 0.00 0.00 0.00 89 1011.0
20260505040223 21 155 4.8 12.9 0.00 0.00 0.00 88 1011.0
20260505035723 21 144 11.3 17.7 0.00 0.00 0.00 88 1011.0
20260505035223 22 128 8.0 12.9 0.00 0.00 0.00 88 1011.0
20260505034723 22 138 6.4 14.5 0.00 0.00 0.00 88 1011.0
20260505034223 22 147 9.7 17.7 0.00 0.00 0.00 87 1011.0
20260505033723 22 152 8.0 12.9 0.00 0.00 0.00 87 1011.0
20260505033223 22 140 6.4 17.7 0.00 0.00 0.00 87 1011.0
20260505032724 22 142 3.2 12.9 0.00 0.00 0.00 87 1011.0
20260505032223 22 138 9.7 9.7 0.00 0.00 0.00 87 1011.0
20260505031724 22 111 3.2 6.4 0.00 0.00 0.00 86 1011.0
20260505031223 22 129 8.0 9.7 0.00 0.00 0.00 86 1011.0
20260505030723 22 148 4.8 11.3 0.00 0.00 0.00 86 1011.0
20260505030227 22 133 8.0 9.7 0.00 0.00 0.00 85 1011.0
20260505025727 22 117 8.0 9.7 0.00 0.00 0.00 85 1012.0
20260505025223 22 88 4.8 11.3 0.00 0.00 0.00 85 1011.0
20260505024726 22 127 3.2 9.7 0.00 0.00 0.00 84 1011.0
20260505024223 23 163 6.4 8.0 0.00 0.00 0.00 84 1011.0
20260505023723 23 130 8.0 8.0 0.00 0.00 0.00 84 1011.0
20260505023223 23 117 4.8 6.4 0.00 0.00 0.00 83 1011.0
20260505022726 23 155 6.4 8.0 0.00 0.00 0.00 83 1011.0
20260505022223 23 124 4.8 9.7 0.00 0.00 0.00 83 1011.0
20260505021727 23 153 6.4 8.0 0.00 0.00 0.00 82 1011.0
20260505021226 23 169 6.4 9.7 0.00 0.00 0.00 82 1010.0
20260505020723 23 173 3.2 8.0 0.00 0.00 0.00 81 1011.0
20260505020225 23 153 6.4 9.7 0.00 0.00 0.00 81 1011.0
20260505015723 23 145 4.8 12.9 0.00 0.00 0.00 80 1011.0
20260505015224 23 118 11.3 11.3 0.00 0.00 0.00 80 1010.0
20260505014723 23 138 4.8 8.0 0.00 0.00 0.00 80 1010.0
20260505014223 24 164 3.2 8.0 0.00 0.00 0.00 79 1010.0
20260505013723 24 146 0.0 8.0 0.00 0.00 0.00 79 1011.0
20260505013223 24 163 4.8 8.0 0.00 0.00 0.00 78 1010.0
20260505012723 24 147 6.4 9.7 0.00 0.00 0.00 78 1010.0
20260505012223 25 168 4.8 14.5 0.00 0.00 0.00 77 1010.0
20260505011723 25 197 9.7 17.7 0.00 0.00 0.00 77 1010.0
20260505011223 25 131 6.4 17.7 0.00 0.00 0.00 77 1010.0
20260505010724 25 166 12.9 17.7 0.00 0.00 0.00 76 1010.0
20260505010227 25 151 12.9 16.1 0.00 0.00 0.00 76 1010.0
20260505005723 25 165 6.4 11.3 0.00 0.00 0.00 75 1010.0
20260505005224 25 122 6.4 16.1 0.00 0.00 0.00 75 1010.0
20260505004724 25 151 11.3 11.3 0.00 0.00 0.00 74 1010.0
20260505004224 25 160 6.4 17.7 0.00 0.00 0.00 74 1010.0
20260505003723 25 176 9.7 16.1 0.00 0.00 0.00 73 1010.0
20260505003224 25 159 6.4 8.0 0.00 0.00 0.00 73 1010.0
20260505002723 25 164 6.4 22.5 0.00 0.00 0.00 73 1010.0
20260505002223 26 167 8.0 11.3 0.00 0.00 0.00 72 1010.0
20260505001723 26 177 11.3 16.1 0.00 0.00 0.00 71 1010.0
20260505001228 26 150 8.0 17.7 0.00 0.00 0.00 70 1010.0
20260505000723 26 158 8.0 16.1 0.00 0.00 0.00 70 1010.0
20260505000226 26 179 9.7 14.5 0.00 0.00 0.00 69 1010.0
20260504235723 26 171 9.7 24.1 0.00 0.00 0.00 69 1011.0
20260504235223 26 192 16.1 17.7 0.00 0.00 0.00 69 1010.0
20260504234723 26 171 4.8 19.3 0.00 0.00 0.00 68 1011.0
20260504234223 26 156 4.8 14.5 0.00 0.00 0.00 68 1011.0
20260504233723 26 174 9.7 12.9 0.00 0.00 0.00 67 1011.0
20260504233223 26 207 9.7 24.1 0.00 0.00 0.00 67 1011.0
20260504232723 26 169 8.0 17.7 0.00 0.00 0.00 67 1011.0
20260504232223 26 156 9.7 17.7 0.00 0.00 0.00 66 1011.0
20260504231724 27 199 9.7 22.5 0.00 0.00 0.00 65 1012.0
20260504231223 27 170 14.5 16.1 0.00 0.00 0.00 63 1011.0
20260504230723 26 186 8.0 14.5 0.00 0.00 0.00 65 1012.0
20260504230224 26 191 9.7 19.3 0.00 0.00 0.00 64 1011.0
20260504225723 27 129 9.7 16.1 0.00 0.00 0.00 63 1012.0
20260504225223 27 233 20.9 20.9 0.00 0.00 0.00 62 1012.0
20260504224723 27 200 9.7 22.5 0.00 0.00 0.00 63 1012.0
20260504224223 26 181 12.9 24.1 0.00 0.00 0.00 63 1012.0
20260504223723 27 215 14.5 16.1 0.00 0.00 0.00 62 1012.0
20260504223223 27 166 8.0 20.9 0.00 0.00 0.00 63 1012.0
20260504222723 26 197 11.3 16.1 0.00 0.00 0.00 63 1012.0
20260504222224 26 165 12.9 20.9 0.00 0.00 0.00 63 1012.0
20260504221723 27 209 11.3 17.7 0.00 0.00 0.00 61 1012.0
20260504221223 26 214 8.0 20.9 0.00 0.00 0.00 63 1012.0
20260504220723 26 176 6.4 19.3 0.00 0.00 0.00 64 1012.0
20260504220223 26 174 11.3 16.1 0.00 0.00 0.00 62 1012.0
20260504215725 26 149 6.4 17.7 0.00 0.00 0.00 64 1012.0
20260504215224 26 160 8.0 17.7 0.00 0.00 0.00 63 1012.0
20260504214724 26 171 14.5 17.7 0.00 0.00 0.00 64 1012.0
20260504214226 26 119 20.9 24.1 0.00 0.00 0.00 63 1012.0
20260504213723 26 178 8.0 19.3 0.00 0.00 0.00 64 1012.0
20260504213224 26 170 8.0 19.3 0.00 0.00 0.00 64 1012.0
20260504212724 26 158 8.0 16.1 0.00 0.00 0.00 62 1012.0
20260504212223 26 208 3.2 14.5 0.00 0.00 0.00 64 1012.0
20260504211724 26 149 9.7 16.1 0.00 0.00 0.00 64 1012.0
20260504211223 26 163 12.9 19.3 0.00 0.00 0.00 63 1013.0
20260504210723 26 190 8.0 14.5 0.00 0.00 0.00 63 1013.0
20260504210223 26 181 8.0 19.3 0.00 0.00 0.00 63 1013.0
20260504205723 26 162 4.8 17.7 0.00 0.00 0.00 63 1013.0
20260504205224 26 136 12.9 19.3 0.00 0.00 0.00 62 1013.0
20260504204723 26 153 17.7 20.9 0.00 0.00 0.00 61 1013.0
20260504204223 26 172 12.9 22.5 0.00 0.00 0.00 62 1013.0
20260504203723 26 192 17.7 22.5 0.00 0.00 0.00 62 1013.0
20260504203223 26 171 9.7 14.5 0.00 0.00 0.00 63 1013.0
20260504202723 26 185 6.4 16.1 0.00 0.00 0.00 62 1013.0
20260504202223 26 167 9.7 19.3 0.00 0.00 0.00 62 1014.0
20260504201723 26 182 9.7 16.1 0.00 0.00 0.00 63 1014.0
20260504201224 26 170 11.3 17.7 0.00 0.00 0.00 64 1014.0
20260504200724 26 169 11.3 17.7 0.00 0.00 0.00 64 1014.0
20260504200225 26 157 16.1 19.3 0.00 0.00 0.00 64 1014.0
20260504195723 26 163 11.3 17.7 0.00 0.00 0.00 64 1014.0
20260504195223 26 190 6.4 16.1 0.00 0.00 0.00 63 1014.0
20260504194724 26 181 8.0 17.7 0.00 0.00 0.00 62 1014.0
20260504194223 26 225 20.9 22.5 0.00 0.00 0.00 63 1014.0
20260504193723 26 185 9.7 19.3 0.00 0.00 0.00 62 1014.0
20260504193223 26 244 11.3 19.3 0.00 0.00 0.00 63 1014.0
20260504192724 26 217 12.9 19.3 0.00 0.00 0.00 62 1015.0
20260504192224 26 184 12.9 19.3 0.00 0.00 0.00 61 1014.0
20260504191723 26 218 19.3 20.9 0.00 0.00 0.00 62 1015.0
20260504191223 26 180 16.1 20.9 0.00 0.00 0.00 63 1015.0
20260504190723 26 139 9.7 19.3 0.00 0.00 0.00 62 1015.0
20260504190224 26 132 11.3 19.3 0.00 0.00 0.00 62 1014.0
20260504185723 26 143 12.9 19.3 0.00 0.00 0.00 62 1015.0
20260504185223 26 180 11.3 19.3 0.00 0.00 0.00 62 1015.0
20260504184724 26 190 12.9 17.7 0.00 0.00 0.00 62 1015.0
20260504184224 26 176 19.3 20.9 0.00 0.00 0.00 64 1015.0
20260504183724 26 222 11.3 14.5 0.00 0.00 0.00 65 1015.0
20260504183223 26 181 12.9 19.3 0.00 0.00 0.00 63 1015.0
20260504182723 25 169 12.9 20.9 0.00 0.00 0.00 65 1015.0
20260504182224 25 120 17.7 20.9 0.00 0.00 0.00 64 1015.0
20260504181723 26 179 14.5 17.7 0.00 0.00 0.00 63 1015.0
20260504181223 25 181 9.7 19.3 0.00 0.00 0.00 65 1015.0
20260504180724 26 187 11.3 17.7 0.00 0.00 0.00 64 1016.0
20260504180223 25 204 8.0 17.7 0.00 0.00 0.00 64 1016.0
20260504175724 25 202 12.9 20.9 0.00 0.00 0.00 66 1015.0
20260504175223 25 181 4.8 19.3 0.00 0.00 0.00 66 1016.0
20260504174724 25 169 16.1 17.7 0.00 0.00 0.00 67 1016.0
20260504174224 25 209 11.3 19.3 0.00 0.00 0.00 66 1016.0
20260504173723 25 182 14.5 24.1 0.00 0.00 0.00 67 1016.0
20260504173225 25 179 11.3 20.9 0.00 0.00 0.00 68 1016.0
20260504172726 24 162 12.9 22.5 0.00 0.00 0.00 69 1016.0
20260504172223 23 168 6.4 16.1 0.00 0.00 0.00 71 1016.0
20260504171723 25 156 14.5 22.5 0.00 0.00 0.00 69 1016.0
20260504171223 25 207 14.5 20.9 0.00 0.00 0.00 69 1016.0
20260504170723 23 200 4.8 19.3 0.00 0.00 0.00 72 1016.0
20260504170224 23 195 6.4 19.3 0.00 0.00 0.00 73 1017.0